This is the latest recevied weather packets stored in our database for station/object DC4AT. If no packets are shown the sender has not sent any weather packets the latest 10 day(s).
| Time | Temp. | Humidity | Pressure | Rain* | Wind** | Luminosity | Snow |
|---|---|---|---|---|---|---|---|
| 1788001651 | 22.22° C | 61% | 1012.3 hPa | 0 mm | - | 504 W/m² | - |
| 1788001051 | 22.22° C | 64% | 1012.3 hPa | 0 mm | - | 524 W/m² | - |
| 1788000451 | 21.67° C | 65% | 1012.4 hPa | 0 mm | - | 559 W/m² | - |
| 1787999851 | 21.67° C | 65% | 1012.6 hPa | 0 mm | - | 592 W/m² | - |
| 1787999251 | 21.11° C | 67% | 1012.6 hPa | 0 mm | - | 619 W/m² | - |
| 1787998651 | 21.11° C | 67% | 1012.6 hPa | 0 mm | - | 605 W/m² | - |
| 1787998051 | 21.11° C | 68% | 1012.6 hPa | 0 mm | - | 601 W/m² | - |
| 1787997451 | 20.56° C | 69% | 1012.6 hPa | 0 mm | - | 578 W/m² | - |
| 1787996851 | 20.56° C | 70% | 1012.7 hPa | 0 mm | - | 571 W/m² | - |
| 1787996251 | 20° C | 72% | 1012.8 hPa | 0 mm | - | 555 W/m² | - |
| 1787995651 | 20° C | 72% | 1012.8 hPa | 0 mm | - | 434 W/m² | - |
| 1787995051 | 20° C | 73% | 1012.9 hPa | 0 mm | - | 527 W/m² | - |
| 1787994451 | 19.44° C | 74% | 1012.8 hPa | 0 mm | - | 517 W/m² | - |
| 1787993851 | 18.89° C | 75% | 1012.8 hPa | 0 mm | - | 408 W/m² | - |
| 1787993251 | 18.89° C | 76% | 1012.8 hPa | 0 mm | - | 529 W/m² | - |
| 1787992651 | 18.33° C | 77% | 1012.9 hPa | 0 mm | - | 504 W/m² | - |
| 1787992051 | 18.33° C | 77% | 1013 hPa | 0 mm | - | 461 W/m² | - |
| 1787991452 | 18.33° C | 78% | 1012.8 hPa | 0 mm | - | 436 W/m² | - |
| 1787990851 | 17.78° C | 80% | 1012.8 hPa | 0 mm | - | 406 W/m² | - |
| 1787990251 | 17.22° C | 81% | 1012.8 hPa | 0 mm | - | 281 W/m² | - |
| 1787989652 | 17.22° C | 82% | 1012.7 hPa | 0 mm | - | 343 W/m² | - |
| 1787989052 | 16.67° C | 83% | 1012.6 hPa | 0 mm | - | 248 W/m² | - |
| 1787988452 | 16.11° C | 83% | 1012.6 hPa | 0 mm | - | 144 W/m² | - |
| 1787987852 | 16.11° C | 84% | 1012.6 hPa | 0 mm | - | 153 W/m² | - |
| 1787987252 | 15.56° C | 84% | 1012.6 hPa | 0 mm | - | 209 W/m² | - |
* Rain latest hour (hover to see other rain measurements)
** Current wind speed in m/s (hover to see current wind gust speed)